Home   Weather   Paradise   Past weeks

Flag for USA Past Weather in Paradise, Nevada, USA — Yesterday and Last 2 Weeks

Now
50 °F

Passing clouds.


Feels Like: 50 °F
Forecast: 41 / 58 °F
Wind: No wind

Location: McCarran International Airport

Current Time: Dec 8, 2016 at 10:05:57 pm

Latest Report: Dec 8, 2016 at 8:56 pm


Visibility: 10 mi

Pressure: 30.26 "Hg (28.00 "Hg at 643m altitude)

Humidity: 21%

Dew Point: 11 °F

Location of ParadiseLocation

Past Weather in Paradise — Graph

°F

Paradise Temperature Yesterday

Maximum temperature yesterday: 54 °F (at 1:56 pm)
Minimum temperature yesterday: 39 °F (at 11:56 pm)
Average temperature yesterday: 47 °F

High & Low Weather Summary for the Past Weeks

 TemperatureHumidityPressure
High65 °F (Nov 26, 2:56 pm)62% (Nov 27, 9:56 pm)30.39 "Hg (Nov 27, 9:56 pm)
Low36 °F (Dec 8, 5:56 am)11% (Dec 3, 1:56 pm)29.67 "Hg (Nov 26, 4:56 pm)
Average50 °F27%30.03 "Hg
* Reported Nov 23 7:56 pm — Dec 8 7:56 pm, Paradise, Weather by CustomWeather, © 2016

Note: Actual official high and low records may vary slightly from our data, if they occured in-between our weather recording intervals... More about our weather records

Advertising

Paradise Weather History for the Previous 24 Hours

Scroll right to see more
 ConditionsComfort  
Time TempWeatherWind HumidityBarometerVisibility
7:56 pm
Thu, Dec 8
50 °FPassing clouds.No wind21%30.29 "Hg10 mi
6:56 pm51 °FPassing clouds.No wind17%30.26 "Hg10 mi
5:56 pm52 °FPassing clouds.No wind16%30.24 "Hg10 mi
4:56 pm51 °FPassing clouds.No wind17%30.23 "Hg10 mi
3:56 pm52 °FPartly sunny.No wind15%30.22 "Hg10 mi
2:56 pm52 °FScattered clouds.3 mph15%30.21 "Hg10 mi
1:56 pm53 °FScattered clouds.5 mph14%30.22 "Hg10 mi
12:56 pm52 °FScattered clouds.6 mph15%30.24 "Hg10 mi
11:56 am51 °FScattered clouds.5 mph16%30.26 "Hg10 mi
10:56 am50 °FScattered clouds.No wind16%30.29 "Hg10 mi
9:56 am47 °FScattered clouds.No wind18%30.30 "Hg10 mi
8:56 am46 °FScattered clouds.No wind20%30.30 "Hg10 mi
7:56 am40 °FScattered clouds.No wind27%30.29 "Hg10 mi
6:56 am37 °FScattered clouds.3 mph30%30.27 "Hg10 mi
5:56 am36 °FPassing clouds.No wind32%30.25 "Hg10 mi
4:56 am38 °FPassing clouds.3 mph26%30.23 "Hg10 mi
3:56 am37 °FPassing clouds.6 mph26%30.21 "Hg10 mi
2:56 am38 °FPassing clouds.5 mph26%30.22 "Hg10 mi
1:56 am37 °FPassing clouds.3 mph28%30.22 "Hg10 mi
12:56 am38 °FPassing clouds.5 mph27%30.21 "Hg10 mi
11:56 pm
Wed, Dec 7
39 °FPassing clouds.6 mph25%30.21 "Hg10 mi
10:56 pm40 °FPassing clouds.3 mph27%30.22 "Hg10 mi
Weather by CustomWeather, © 2016

See weather overviewHow to use our weather pages